TimeEST,TemperatureF,Dew PointF,Humidity,Sea Level PressureIn,VisibilityMPH,Wind Direction,Wind SpeedMPH,Gust SpeedMPH,PrecipitationIn,Events,Conditions,WindDirDegrees,DateUTC
12:52 AM,30.9,27.0,85,29.81,10.0,NW,3.5,-,N/A,,Partly Cloudy,310,2012-12-19 05:52:00
1:52 AM,32.0,28.0,85,29.83,10.0,Calm,Calm,-,N/A,,Mostly Cloudy,0,2012-12-19 06:52:00
2:52 AM,30.9,28.0,89,29.83,10.0,South,3.5,-,N/A,,Scattered Clouds,180,2012-12-19 07:52:00
3:52 AM,32.0,28.0,85,29.83,10.0,Calm,Calm,-,N/A,,Clear,0,2012-12-19 08:52:00
4:52 AM,28.9,26.1,89,29.83,10.0,SSE,3.5,-,N/A,,Partly Cloudy,150,2012-12-19 09:52:00
5:52 AM,30.0,28.0,92,29.85,10.0,Calm,Calm,-,N/A,,Overcast,0,2012-12-19 10:52:00
6:52 AM,33.1,30.0,89,29.87,10.0,WNW,4.6,-,N/A,,Mostly Cloudy,300,2012-12-19 11:52:00
7:52 AM,33.1,28.9,85,29.90,10.0,West,3.5,-,N/A,,Mostly Cloudy,280,2012-12-19 12:52:00
8:52 AM,41.0,32.0,70,29.91,10.0,NW,6.9,-,N/A,,Scattered Clouds,320,2012-12-19 13:52:00
9:52 AM,48.0,35.1,61,29.91,10.0,North,11.5,-,N/A,,Scattered Clouds,350,2012-12-19 14:52:00
10:52 AM,50.0,36.0,59,29.94,10.0,NNW,9.2,-,N/A,,Scattered Clouds,340,2012-12-19 15:52:00
11:52 AM,50.0,36.0,59,29.95,10.0,NW,10.4,-,N/A,,Mostly Cloudy,310,2012-12-19 16:52:00
12:52 PM,51.1,36.0,56,29.95,10.0,NW,9.2,18.4,N/A,,Overcast,320,2012-12-19 17:52:00
1:52 PM,52.0,35.1,53,29.96,10.0,WNW,17.3,24.2,N/A,,Mostly Cloudy,300,2012-12-19 18:52:00
2:52 PM,52.0,35.1,53,30.00,10.0,NW,13.8,-,N/A,,Mostly Cloudy,310,2012-12-19 19:52:00
3:52 PM,51.1,34.0,52,30.03,10.0,NNW,12.7,24.2,N/A,,Scattered Clouds,330,2012-12-19 20:52:00
4:52 PM,48.9,33.1,54,30.04,10.0,NNW,16.1,25.3,N/A,,Partly Cloudy,330,2012-12-19 21:52:00
5:52 PM,48.9,34.0,56,30.07,10.0,NNW,15.0,-,N/A,,Scattered Clouds,330,2012-12-19 22:52:00
6:52 PM,46.9,33.1,59,30.12,10.0,NW,9.2,-,N/A,,Clear,320,2012-12-19 23:52:00
7:52 PM,44.1,32.0,63,30.14,10.0,NW,6.9,-,N/A,,Partly Cloudy,320,2012-12-20 00:52:00
8:52 PM,46.0,33.1,61,30.15,10.0,Calm,Calm,-,N/A,,Scattered Clouds,0,2012-12-20 01:52:00
9:52 PM,41.0,33.1,73,30.16,10.0,Calm,Calm,-,N/A,,Partly Cloudy,0,2012-12-20 02:52:00
10:52 PM,37.9,32.0,79,30.18,10.0,Calm,Calm,-,N/A,,Partly Cloudy,0,2012-12-20 03:52:00
11:52 PM,33.1,30.0,89,30.18,10.0,ESE,3.5,-,N/A,,Clear,120,2012-12-20 04:52:00